To NAV CANADA Home Page Login to a new session Search on AWWS site Feedback and Comments Disclaimer Vers la page française équivalente Tips FAQ What's new on the site To the Forecasts and Observations / NOTAM section To "File a Flight Plan" website Publications and other links Update of the User's profile FIC Telephone Numbers My Weather Data Folder Route Weather Data Regional Weather Data Local Weather Data To the Forecasts and Observations / NOTAM section
Request Generated 02/10/2016 at 10:41:00 UTC . Weather information available at that time is displayed.

METAR/TAF

BERENS RIVER/MB    

LWIS CYBV 101000Z AUTO 12003KT M28/M31 A3021=
LWIS CYBV 100900Z AUTO 12004KT M31/M34 A3021=
LWIS CYBV 100800Z AUTO 15003KT M31/M34 A3022=

CYBV - No TAF is issued for this station

Your time UTC time
Weather data provided by Environment Canada and NAV CANADA